Simultaneous Nadir Overpasses (SNOs) Predictions

Prediction of SNOs between GOES-15 and NPP Satellite Orbit:

Table of predicted SNOs for the next 14.0 days since TLE Epoch: 4/6/2012
Index Date Time (GOES-15) GOES-15 Lat,Lon NPP Lat,Lon Distance(km) Time Diff (sec)
1 04/07/2012 10:29:55 0.06,-134.46 0.60,-136.76 262.90 80
2 04/08/2012 10:13:51 0.06,-134.40 -0.44,-132.23 247.48 80
3 04/09/2012 22:33:06 -0.05,-134.34 -0.76,-137.54 364.51 80
4 04/10/2012 22:17:01 -0.06,-134.28 0.22,-133.00 145.60 80
5 04/12/2012 10:36:08 0.05,-134.16 0.96,-138.27 467.59 80
6 04/13/2012 10:20:02 0.05,-134.10 -0.03,-133.73 42.23 80
7 04/15/2012 22:20:32 -0.05,-133.96 -0.18,-134.49 60.75 80
8 04/16/2012 22:04:27 -0.06,-133.90 0.81,-129.96 449.11 80
9 04/18/2012 10:23:34
